Location: Chacón
(10.5789°N, 66.9317°W)
Time: 14:02:18
(UTC+00:00)

Cosmos 1727 Rocket - Pass Details

Date: 08 August 2024
Orbit: 960 x 997 km, 82.9° (Epoch: 08 September)

Event Time Altitude Azimuth Distance (km) Brightness Sun altitude
Rises 01:08:07 0° 348° (NNW) 3,646 7.5 -32.7°
Reaches altitude 10° 01:10:41 10° 343° (NNW) 2,696 6.8 -33.2°
Enters shadow 01:16:34 53° 271° (W) 1,161 4.5 -34.5°
